| time (UTC) | temp F | wind direction | speed knots | gust knots | rain 1hr in | rain 24hr in | rain mn in | humidity % | barometer mb |
| 20260503033036 | 52 | 160 | 7.8 | 10.4 | 0.03 | 0.03 | 0.03 | 74 | 1014.4 |
| 20260503031532 | 56 | 254 | 16.5 | 26.1 | 0.00 | 0.00 | 0.00 | 63 | 1015.6 |
| 20260503030048 | 56 | 306 | 3.5 | 7.0 | 0.00 | 0.00 | 0.00 | 47 | 1013.8 |
| 20260503024534 | 56 | 360 | 1.7 | 3.5 | 0.00 | 0.00 | 0.00 | 45 | 1013.5 |
| 20260503023030 | 58 | 0 | 0.0 | 0.0 | 0.00 | 0.00 | 0.00 | 42 | 1013.3 |
| 20260503021528 | 61 | 0 | 0.0 | 0.0 | 0.00 | 0.00 | 0.00 | 40 | 1013.3 |
| 20260503020032 | 62 | 0 | 0.0 | 2.6 | 0.00 | 0.00 | 0.00 | 40 | 1013.3 |
| 20260503014530 | 63 | 212 | 0.9 | 5.2 | 0.00 | 0.00 | 0.00 | 39 | 1013.4 |
| 20260503013029 | 65 | 0 | 0.0 | 2.6 | 0.00 | 0.00 | 0.00 | 37 | 1013.5 |
| 20260503011532 | 65 | 0 | 0.9 | 4.3 | 0.00 | 0.00 | 0.00 | 36 | 1013.5 |
| 20260503010031 | 66 | 252 | 0.9 | 10.4 | 0.00 | 0.00 | 0.00 | 36 | 1013.5 |
| 20260503004530 | 67 | 291 | 0.9 | 5.2 | 0.00 | 0.00 | 0.00 | 36 | 1013.7 |
| 20260503003031 | 67 | 202 | 2.6 | 5.2 | 0.00 | 0.00 | 0.00 | 37 | 1013.8 |
| 20260503001532 | 65 | 198 | 2.6 | 5.2 | 0.00 | 0.00 | 0.00 | 39 | 1013.9 |
| 20260503000033 | 65 | 89 | 0.9 | 2.6 | 0.00 | 0.00 | 0.00 | 38 | 1014.0 |
| 20260502234531 | 65 | 340 | 2.6 | 5.2 | 0.00 | 0.00 | 0.00 | 38 | 1014.2 |
| 20260502233030 | 66 | 326 | 1.7 | 5.2 | 0.00 | 0.00 | 0.00 | 36 | 1014.3 |
| 20260502231530 | 67 | 35 | 0.9 | 4.3 | 0.00 | 0.00 | 0.00 | 36 | 1014.4 |
| 20260502230032 | 66 | 36 | 2.6 | 7.0 | 0.00 | 0.00 | 0.00 | 38 | 1014.7 |
| 20260502224530 | 65 | 84 | 4.3 | 9.6 | 0.00 | 0.00 | 0.00 | 38 | 1014.9 |
| 20260502223029 | 66 | 71 | 7.8 | 12.2 | 0.00 | 0.00 | 0.00 | 37 | 1015.1 |
| 20260502221529 | 67 | 165 | 4.3 | 7.8 | 0.00 | 0.00 | 0.00 | 37 | 1015.2 |
| 20260502220028 | 65 | 116 | 1.7 | 6.1 | 0.00 | 0.00 | 0.00 | 39 | 1015.4 |
| 20260502214528 | 65 | 162 | 4.3 | 9.6 | 0.00 | 0.00 | 0.00 | 40 | 1015.7 |
| 20260502213039 | 63 | 132 | 5.2 | 10.4 | 0.00 | 0.00 | 0.00 | 41 | 1016.0 |
| 20260502211532 | 63 | 74 | 5.2 | 8.7 | 0.00 | 0.00 | 0.00 | 42 | 1016.1 |
| 20260502210029 | 63 | 81 | 6.1 | 13.0 | 0.00 | 0.00 | 0.00 | 42 | 1016.2 |
| 20260502204531 | 63 | 94 | 3.5 | 11.3 | 0.00 | 0.00 | 0.00 | 42 | 1016.2 |
| 20260502203029 | 63 | 80 | 7.0 | 12.2 | 0.00 | 0.00 | 0.00 | 42 | 1016.3 |
| 20260502201532 | 63 | 31 | 3.5 | 13.9 | 0.00 | 0.00 | 0.00 | 41 | 1016.4 |
| 20260502200032 | 66 | 69 | 7.8 | 11.3 | 0.00 | 0.00 | 0.00 | 38 | 1016.6 |
| 20260502194530 | 63 | 53 | 0.9 | 10.4 | 0.00 | 0.00 | 0.00 | 41 | 1016.7 |
| 20260502193030 | 63 | 316 | 3.5 | 8.7 | 0.00 | 0.00 | 0.00 | 42 | 1017.0 |
| 20260502191529 | 63 | 49 | 5.2 | 11.3 | 0.00 | 0.00 | 0.00 | 41 | 1017.1 |
| 20260502190030 | 63 | 345 | 7.8 | 11.3 | 0.00 | 0.00 | 0.00 | 41 | 1017.3 |
| 20260502184529 | 63 | 276 | 2.6 | 7.0 | 0.00 | 0.00 | 0.00 | 41 | 1017.4 |
| 20260502183030 | 63 | 268 | 4.3 | 7.8 | 0.00 | 0.00 | 0.00 | 41 | 1017.3 |
| 20260502181541 | 63 | 275 | 2.6 | 7.0 | 0.00 | 0.00 | 0.00 | 42 | 1017.4 |
| 20260502163028 | 61 | 259 | 1.7 | 9.6 | 0.00 | 0.00 | 0.00 | 44 | 1017.8 |
| 20260502161530 | 60 | 271 | 4.3 | 7.8 | 0.00 | 0.00 | 0.00 | 45 | 1017.9 |
| 20260502151534 | 57 | 281 | 4.3 | 7.8 | 0.00 | 0.00 | 0.00 | 49 | 1017.9 |
| 20260502123031 | 49 | 44 | 11.3 | 14.8 | 0.00 | 0.00 | 0.00 | 56 | 1016.4 |
| 20260502121530 | 49 | 49 | 13.0 | 16.5 | 0.00 | 0.00 | 0.00 | 55 | 1016.2 |
| 20260502114532 | 50 | 53 | 15.6 | 20.0 | 0.00 | 0.00 | 0.00 | 54 | 1015.8 |
| 20260502113032 | 50 | 49 | 16.5 | 20.0 | 0.00 | 0.00 | 0.00 | 53 | 1015.6 |
| 20260502111533 | 50 | 43 | 13.9 | 17.4 | 0.00 | 0.00 | 0.00 | 53 | 1015.2 |
| 20260502110032 | 50 | 49 | 12.2 | 15.6 | 0.00 | 0.00 | 0.00 | 53 | 1015.1 |
| 20260502104530 | 45 | 62 | 7.8 | 12.2 | 0.00 | 0.00 | 0.00 | 60 | 1014.9 |
| 20260502103028 | 44 | 24 | 2.6 | 4.3 | 0.00 | 0.00 | 0.00 | 56 | 1014.9 |
| 20260502101536 | 43 | 340 | 3.5 | 5.2 | 0.00 | 0.00 | 0.00 | 57 | 1014.7 |
| 20260502091528 | 47 | 5 | 4.3 | 7.0 | 0.00 | 0.00 | 0.00 | 49 | 1014.1 |
| 20260502071532 | 44 | 327 | 2.6 | 4.3 | 0.00 | 0.00 | 0.00 | 49 | 1013.7 |
| 20260502070032 | 47 | 281 | 0.9 | 2.6 | 0.00 | 0.00 | 0.00 | 45 | 1013.7 |
| 20260502064546 | 49 | 281 | 1.7 | 3.5 | 0.00 | 0.00 | 0.00 | 43 | 1013.6 |
| 20260502063036 | 48 | 5 | 1.7 | 3.5 | 0.00 | 0.00 | 0.00 | 45 | 1013.4 |
| 20260502061530 | 49 | 5 | 2.6 | 4.3 | 0.00 | 0.00 | 0.00 | 43 | 1013.5 |
| 20260502060030 | 50 | 12 | 3.5 | 8.7 | 0.00 | 0.00 | 0.00 | 42 | 1013.5 |
| 20260502054531 | 50 | 9 | 7.8 | 9.6 | 0.00 | 0.00 | 0.00 | 41 | 1013.5 |
| 20260502053032 | 51 | 5 | 8.7 | 12.2 | 0.00 | 0.00 | 0.00 | 40 | 1013.4 |
| 20260502051537 | 50 | 351 | 9.6 | 11.3 | 0.00 | 0.00 | 0.00 | 40 | 1013.5 |
| 20260502050031 | 51 | 352 | 7.0 | 9.6 | 0.00 | 0.00 | 0.00 | 39 | 1013.4 |
| 20260502044536 | 52 | 11 | 3.5 | 7.0 | 0.00 | 0.00 | 0.00 | 37 | 1013.4 |
| 20260502043030 | 54 | 17 | 1.7 | 3.5 | 0.00 | 0.00 | 0.00 | 35 | 1013.4 |
| 20260502041530 | 54 | 321 | 0.0 | 6.1 | 0.00 | 0.00 | 0.00 | 33 | 1013.3 |
| 20260502040040 | 54 | 341 | 0.9 | 2.6 | 0.00 | 0.00 | 0.00 | 32 | 1013.2 |
| 20260502034530 | 55 | 0 | 0.9 | 1.7 | 0.00 | 0.00 | 0.00 | 31 | 1013.1 |